Regional Weather Roundup
Issued by NWS

Home | Current Version | Previous Version | Graphics & Text | Print | Product List | Glossary On
Versions: 1 2 3 4 5 6 7 8 9 10 11 12 13 14 15 16 17 18 19 20 21 22 23 24 25 26 27 28 29 30 31 32 33 34 35 36 37 38 39 40 41 42 43 44 45 46 47 48 49 50
000
ASUS43 KMKX 291800
RWRWI

WISCONSIN REGIONAL WEATHER ROUNDUP
NATIONAL WEATHER SERVICE MILWAUKEE/SULLIVAN WI
100 PM CDT FRI APR 29 2016

NOTE: "FAIR" INDICATES FEW OR NO CLOUDS BELOW 12,000 FEET WITH NO
SIGNIFICANT WEATHER AND/OR OBSTRUCTIONS TO VISIBILITY.

WIZ001-002-006>008-014>016-023>028-291900-
NORTHWEST WISCONSIN

CITY           SKY/WX    TMP DP  RH WIND       PRES   REMARKS
SUPERIOR ARPT  SUNNY     48  31  52 E9        30.20F
ASHLAND        SUNNY     51  36  56 N15       30.19F
6HR MIN TEMP:  30; 6HR MAX TEMP:  52;

HAYWARD        SUNNY     55  29  36 N10G20    30.15S
6HR MIN TEMP:  29; 6HR MAX TEMP:  55;

SIREN          SUNNY     54  28  36 N10G18    30.15R
CUMBERLAND     SUNNY     52  30  43 NE10      30.13S
RICE LAKE      SUNNY     54  30  40 NE10G17   30.14S
CHETEK         SUNNY     53  34  48 CALM      30.13S
LADYSMITH      MOSUNNY   55  34  43 N5        30.14S
6HR MIN TEMP:  38; 6HR MAX TEMP:  56;

EAU CLAIRE     NOT AVBL
MENOMONIE      MOSUNNY   53  53 100 E3        30.14R
NEW RICHMOND   SUNNY     52  33  49 NE7       30.14F
OSCEOLA        SUNNY     53  34  47 NE9       30.18R
$$

WIZ003>005-009-010-017-018-291900-
NORTH CENTRAL WISCONSIN

CITY           SKY/WX    TMP DP  RH WIND       PRES   REMARKS
MANITOWISH WTR PTSUNNY   52  31  45 CALM      30.11F
ARBOR VITAE    PTSUNNY   52  33  47 E5        30.11F
WOODRUFF       PTSUNNY   52  33  47 E5        30.11F
RHINELANDER    CLOUDY    51  32  48 CALM      30.13R
6HR MIN TEMP:  38; 6HR MAX TEMP:  51;

EAGLE RIVER    PTSUNNY   50  30  47 NE6       30.12F
LAND O LAKES   CLOUDY    51  31  47 CALM      30.13S
PHILLIPS       CLOUDY    52  32  46 CALM      30.12R
6HR MIN TEMP:  38; 6HR MAX TEMP:  54;

TOMAHAWK       PTSUNNY   51  34  51 E5        30.13R
MEDFORD        PTSUNNY   50  38  64 NE12      30.11S
MERRILL        MOSUNNY   51  35  52 NE6       30.12S
$$

WIZ029-030-035-036-043>047-291900-
CENTRAL WISCONSIN

CITY           SKY/WX    TMP DP  RH WIND       PRES   REMARKS
WAUSAU         PTSUNNY   54  35  48 E8        30.11R
6HR MIN TEMP:  40; 6HR MAX TEMP:  56;

MOSINEE        PTSUNNY   52  36  54 E8        30.14R
MARSHFIELD     PTSUNNY   51  37  58 N7G18     30.12R
6HR MIN TEMP:  39; 6HR MAX TEMP:  52;

STEVENS POINT  PTSUNNY   50  32  49 E9        30.14R
WAUPACA        CLOUDY    55  34  44 NE6       30.14R
6HR MIN TEMP:  41; 6HR MAX TEMP:  56;

WAUTOMA        NOT AVBL
WISC RAPIDS    CLOUDY    51  33  50 VRB3      30.14R
6HR MIN TEMP:  40; 6HR MAX TEMP:  51;

CAMP DOUGLAS   NOT AVBL
$$

WIZ011>013-019>022-031-037>040-048>050-291900-
NORTHEAST WISCONSIN

CITY           SKY/WX    TMP DP  RH WIND       PRES   REMARKS
ANTIGO         CLOUDY    51  32  47 NE5       30.11R
SHAWANO        CLOUDY    54  35  48 E9        30.13R
6HR MIN TEMP:  42; 6HR MAX TEMP:  54;

OCONTO         CLOUDY    48  32  54 E7        30.13R
STURGEON BAY   CLOUDY    48  27  43 E10       30.15R
6HR MIN TEMP:  39; 6HR MAX TEMP:  50;

GREEN BAY      PTSUNNY   53  31  42 NE15      30.13S
6HR MIN TEMP:  41; 6HR MAX TEMP:  53; 6HR PCP: TRACE;

MANITOWOC      NOT AVBL
APPLETON       PTSUNNY   52  28  40 NE10G20   30.11R
CLINTONVILLE   CLOUDY    54  32  43 E13G18    30.10F
OSHKOSH        CLOUDY    52  34  50 N8G16     30.12R
6HR MIN TEMP:  41; 6HR MAX TEMP:  52;

$$

WIZ032>034-041-042-053>061-291900-
SOUTHWEST WISCONSIN

CITY           SKY/WX    TMP DP  RH WIND       PRES   REMARKS
LA CROSSE      CLOUDY    51  36  56 VRB5      30.14S
6HR MIN TEMP:  42; 6HR MAX TEMP:  52;

SPARTA         CLOUDY    49  38  66 E8        30.15R
VIROQUA        CLOUDY    49  38  66 NE9       30.13S
BOSCOBEL       PTSUNNY   53  36  52 NE8       30.12F
6HR MIN TEMP:  41; 6HR MAX TEMP:  54;

PRAIRIE DU CHI CLOUDY    50  36  58 E9        30.12F
PLATTEVILLE    CLOUDY    48  39  71 NE9       30.11R
$$

WIZ056-057-062-063-064-067-068-291900-
SOUTH CENTRAL WISCONSIN

CITY           SKY/WX    TMP DP  RH WIND       PRES   REMARKS
REEDSBURG      CLOUDY    48  36  64 E6        30.13R
BARABOO/DELLS  CLOUDY    49  36  61 NE6       30.13R
LONE ROCK      NOT AVBL
MINERAL POINT  CLOUDY    48  37  66 NE9       30.11S
MADISON        CLOUDY    49  38  65 NE10      30.12R
6HR MIN TEMP:  39; 6HR MAX TEMP:  49;

MIDDLETON      CLOUDY    47  38  72 E7        30.13S
WATERTOWN      CLOUDY    46  38  75 E6        30.13R
MONROE         CLOUDY    45  37  76 NE7       30.11R
JANESVILLE     CLOUDY    48  39  71 NE12      30.11R
$$

WIZ051-052-058>065-066-070>072-291900-
SOUTHEAST WISCONSIN

CITY           SKY/WX    TMP DP  RH WIND       PRES   REMARKS
MILWAUKEE      PTSUNNY   46  38  73 N14       30.11S
6HR MIN TEMP:  40; 6HR MAX TEMP:  46;

WAUKESHA       MOSUNNY   45  36  70 NE9       30.13S
MILWAUKEE/TIMM NOT AVBL
RACINE         MOSUNNY   47  37  68 NE16      30.11F
6HR MIN TEMP:  41; 6HR MAX TEMP:  47;

BURLINGTON     CLOUDY    44  37  78 E8        30.11S
6HR MIN TEMP:  39; 6HR MAX TEMP:  44;

KENOSHA        PTSUNNY   48  39  71 NE10      30.10F
6HR MIN TEMP:  41; 6HR MAX TEMP:  48;

FOND DU LAC    CLOUDY    50  36  58 N6        30.13R
6HR MIN TEMP:  41; 6HR MAX TEMP:  50;

SHEBOYGAN      MOSUNNY   49  33  54 NE12      30.13S
6HR MIN TEMP:  39; 6HR MAX TEMP:  50;

WEST BEND      CLOUDY    48  32  53 E8        30.11S
JUNEAU         CLOUDY    46  35  66 CALM      30.13R
$$

LSZ147-162-291900-
LAKE SUPERIOR

STATION/POSITION TIME  TEMP    WIND        PRES    WAVE
                       AIR SEA DIR/SP/G            HT/PER
                 (UTC) (F)     (DEG/KT/KT) (MB)    (FT/S)
W MID LAKE BUOY  1650   38 37   70/  8/ 10 1023.6F   1
DEVILS ISLAND    1700   38      90/  6/  8 1023.7F
SAXON HARBOR     1700   39      10/  6/  8 1022.4S
$$

LMZ867-665-643>646-291900-
LAKE MICHIGAN

STATION/POSITION TIME  TEMP    WIND        PRES    WAVE
                       AIR SEA DIR/SP/G            HT/PER
                 (UTC) (F)     (DEG/KT/KT) (MB)    (FT/S)
CHAMBERS ISLAND  1700   43      20/  8/ 10 1020.7F
N MID LAKE BUOY  1650   39 39   40/ 10/ 12 1020.9S   1/ 3
NORTHPORT PIER   1700   41     330/  5/  7 1020.7F
ALGOMA LAKESHORE 1615           60/ 13/ 17   N/A
KEWAUNEE LAKESHO 1700   43      40/ 12/ 15 1019.9S
SHEBOYGAN LAKESH 1700   40      80/  5/  6 1021.2R
PORT WASHINGTON  1700   43      80/  7/ 10 1021.0S
S MID LAKE BUOY  1650   40 40   40/ 10/ 10 1019.7F   1/ 3
KENOSHA   LAKESH 1700   41      20/  8/  9 1020.0F
$$

TC  - TEMPERATURE IN CELSIUS
VSB - VISIBILITY IN STATUTE MILES
WCI - WIND CHILL INDEX
HX  - HEAT INDEX




USA.gov is the U.S. government's official web portal to all federal, state and local government web resources and services.